This demonstration page uses our WeatherBlox Daily Observations layout. Learn more.

Left ArrowRight Arrow

Hourly Observations for December 10, 2019

Temp ( °F °C ) Dew Point ( °F °C ) Humidity (%) Winds ( mph kmh ) Pressure ( in mb ) Visibility ( mi km ) Precip ( " mm )
12:53 am 00:53 Clear 40 4.4 37 2.8 89 89 Calm 30.21 1023 8 13 0.00 0.00
1:53 am 01:53 Clear 40 4.4 37 2.8 89 89 Calm 30.21 1023 9 14 0.00 0.00
2:53 am 02:53 Clear 40 4.4 38 3.3 93 93 W 3 6 30.23 1024 7 11 0.00 0.00
3:53 am 03:53 Clear 40 4.4 38 3.3 93 93 E 5 7 30.23 1024 9 14 0.00 0.00
4:53 am 04:53 Clear 40 4.4 38 3.3 93 93 WNW 7 11 30.24 1024 8 13 0.00 0.00
5:53 am 05:53 Clear 38 3.3 36 2.2 93 93 Calm 30.24 1024 7 11 0.00 0.00
6:53 am 06:53 Clear with Patchy Fog 37 2.8 35 1.7 93 93 ESE 6 9 30.24 1024 7 11 0.00 0.00
7:53 am 07:53 Sunny with Patchy Fog 37 2.8 35 1.7 93 93 Calm 30.25 1025 10 16 0.00 0.00
8:53 am 08:53 Sunny with Patchy Fog 42 5.6 39 3.9 89 89 Calm 30.27 1025 10 16 0.00 0.00
9:53 am 09:53 Sunny with Patchy Fog 47 8.3 40 4.4 77 77 Calm 30.27 1025 10 16 0.00 0.00
10:53 am 10:53 Sunny 50 10 40 4.4 68 68 Calm 30.27 1025 10 16 0.00 0.00
11:53 am 11:53 Mostly Sunny 51 10.6 40 4.4 66 66 Calm 30.25 1024 10 16 0.00 0.00
12:53 pm 12:53 Sunny 52 11.1 40 4.4 64 64 Calm 30.22 1023 10 16 0.00 0.00
1:53 pm 13:53 Sunny 53 11.7 41 5 64 64 Calm 30.22 1023 10 16 0.00 0.00
2:53 pm 14:53 Mostly Sunny 53 11.7 42 5.6 66 66 Calm 30.21 1023 10 16 0.00 0.00
3:53 pm 15:53 Mostly Cloudy 52 11.1 43 6.1 72 72 Calm 30.21 1023 10 16 0.00 0.00
4:53 pm 16:53 Cloudy 51 10.6 44 6.7 77 77 Calm 30.20 1023 10 16 0.00 0.00
5:53 pm 17:53 Cloudy 51 10.6 44 6.7 77 77 Calm 30.18 1022 10 16 0.00 0.00
6:53 pm 18:53 Cloudy with Light Rain 49 9.4 45 7.2 86 86 Calm 30.19 1022 7 11 0.00 0.00
7:29 pm 19:29 Cloudy with Light Rain 49 9.4 45 7.2 86 86 Calm 30.21 1023 5 8 0.01 0.25
7:53 pm 19:53 Cloudy with Light Rain 49 9.4 45 7.2 86 86 Calm 30.20 1023 4 6 0.01 0.25
8:02 pm 20:02 Cloudy with Light Rain 49 9.4 46 7.8 90 90 Calm 30.22 1023 4 6 0.01 0.25
8:32 pm 20:32 Cloudy with Light Rain 49 9.4 45 7.2 86 86 Calm 30.22 1023 8 13 0.01 0.25
8:53 pm 20:53 Cloudy with Light Rain 49 9.4 45 7.2 86 86 Calm 30.22 1023 6 10 0.02 0.51
9:53 pm 21:53 Cloudy with Mist and Fog 49 9.4 46 7.8 90 90 Calm 30.23 1024 5 8 0.00 0.00
10:11 pm 22:11 Cloudy with Mist and Fog 48 8.9 46 7.8 93 93 NE 6 9 30.24 1024 5 8 0.00 0.00
10:36 pm 22:36 Cloudy with Mist and Fog 49 9.4 46 7.8 90 90 NNE 3 6 30.24 1024 6 10 0.00 0.00
10:53 pm 22:53 Cloudy with Mist and Fog 48 8.9 46 7.8 93 93 NE 3 6 30.23 1024 6 10 0.00 0.00
11:01 pm 23:01 Cloudy with Mist and Fog 49 9.4 46 7.8 90 90 Calm 30.24 1024 6 10 0.00 0.00
11:16 pm 23:16 Cloudy with Mist and Fog 48 8.9 46 7.8 93 93 Calm 30.25 1024 4 6 0.00 0.00
11:28 pm 23:28 Cloudy with Mist and Fog 48 8.9 46 7.8 93 93 Calm 30.25 1024 5 8 0.00 0.00
11:53 pm 23:53 Cloudy with Mist and Fog 48 8.9 46 7.8 93 93 NNW 3 6 30.23 1024 5 8 0.00 0.00

Powered by AerisWeather